Pecos, TX

1:57 PM CDT on March 28, 2017 (GMT -0500)
Pecos Municipal

Weather History for KPEQ - August, 2013

Change the Weather History Date:

Monday, August 5, 2013

  Actual Average Record
Temperature  
Mean Temperature 86 °F -  
Max Temperature 101 °F 97 °F 111 °F (1980)
Min Temperature 70 °F 68 °F 56 °F (1936)
Cooling Degree Days 20    
Growing Degree Days 36 (Base 50)    
Moisture  
Dew Point 58 °F    
Average Humidity 41    
Maximum Humidity 70    
Minimum Humidity 20    
Precipitation  
Precipitation 0.00 in - - ()
Sea Level Pressure  
Sea Level Pressure 29.96 in    
Wind  
Wind Speed 7 mph (SE)    
Max Wind Speed 16 mph    
Max Gust Speed 21 mph    
Visibility 10 miles    
Events      
Averages and records for this station are not official NWS values.
T = Trace of Precipitation, MM = Missing Value Source: NWS Daily Summary

Daily Weather History Graph

Daily Weather History Graph

Search for Another Location

Airport or City:

Trip Planner

Search our weather history database for the weather conditions in past years. The results will help you decide how hot, cold, wet, or windy it might be!

Date:

Astronomy

Aug. 05, 2013 Rise Set
Actual Time 7:13 AM CDT 8:46 PM CDT
Civil Twilight 6:47 AM CDT 9:12 PM CDT
Nautical Twilight 6:15 AM CDT 9:43 PM CDT
Astronomical Twilight 5:42 AM CDT 10:16 PM CDT
Moon 6:09 AM CDT (8/5) 7:50 PM CDT (8/5)
Length of Visible Light 14h 25m
Length of Day
13h 32m
Waning Crescent, 1% of the Moon is Illuminated
Aug 5
Waning Crescent
Aug 6
New
Aug 14
First Quarter
Aug 20
Full
Aug 28
Last Quarter

Hourly Weather History & Observations

Time (CDT) Temp. Heat Index Dew Point Humidity Pressure Visibility Wind Dir Wind Speed Gust Speed Precip Events Conditions
12:15 AM 82.9 °F 82.7 °F 58.1 °F 43% 30.00 in 10.0 mi East 9.2 mph - N/A   Clear
12:35 AM 81.7 °F 81.8 °F 58.5 °F 45% 30.00 in 10.0 mi East 9.2 mph - N/A   Clear
12:55 AM 80.6 °F 81.1 °F 59.0 °F 48% 30.00 in 10.0 mi East 6.9 mph - N/A   Clear
1:15 AM 79.5 °F - 59.0 °F 49% 30.00 in 10.0 mi East 6.9 mph - N/A   Clear
1:35 AM 78.6 °F - 59.2 °F 51% 30.00 in 10.0 mi East 6.9 mph - N/A   Clear
1:55 AM 77.5 °F - 59.2 °F 53% 30.00 in 10.0 mi East 8.1 mph - N/A   Clear
2:15 AM 77.4 °F - 59.4 °F 54% 30.00 in 10.0 mi ENE 6.9 mph - N/A   Clear
2:35 AM 76.6 °F - 59.2 °F 55% 30.00 in 10.0 mi East 9.2 mph - N/A   Clear
2:55 AM 77.0 °F - 59.4 °F 54% 30.00 in 10.0 mi East 9.2 mph - N/A   Clear
3:15 AM 77.2 °F - 59.5 °F 54% 29.99 in 10.0 mi East 10.4 mph - N/A   Clear
3:35 AM 76.8 °F - 59.5 °F 55% 29.99 in 10.0 mi East 9.2 mph - N/A   Clear
3:55 AM 76.5 °F - 59.9 °F 56% 29.99 in 10.0 mi East 9.2 mph - N/A   Clear
4:15 AM 75.7 °F - 59.5 °F 57% 29.99 in 10.0 mi East 9.2 mph - N/A   Clear
4:35 AM 74.8 °F - 59.9 °F 60% 29.98 in 10.0 mi East 8.1 mph - N/A   Clear
4:55 AM 74.7 °F - 59.7 °F 60% 29.98 in 10.0 mi East 8.1 mph - N/A   Clear
5:15 AM 73.8 °F - 59.9 °F 62% 29.98 in 10.0 mi East 5.8 mph - N/A   Clear
5:35 AM 72.7 °F - 59.7 °F 64% 29.98 in 10.0 mi East 4.6 mph - N/A   Clear
5:55 AM 72.0 °F - 59.7 °F 65% 29.98 in 10.0 mi East 4.6 mph - N/A   Clear
6:15 AM 71.6 °F - 59.5 °F 66% 29.99 in 10.0 mi NE 4.6 mph - N/A   Clear
6:35 AM 71.6 °F - 59.5 °F 66% 30.00 in 10.0 mi Calm Calm - N/A   Clear
6:55 AM 70.9 °F - 59.9 °F 68% 30.00 in 10.0 mi Calm Calm - N/A   Clear
7:15 AM 70.3 °F - 59.4 °F 68% 30.00 in 10.0 mi ENE 5.8 mph - N/A   Clear
7:35 AM 70.2 °F - 59.9 °F 70% 30.00 in 10.0 mi ENE 3.5 mph - N/A   Clear
7:55 AM 71.6 °F - 60.3 °F 67% 30.02 in 10.0 mi East 3.5 mph - N/A   Clear
8:15 AM 73.6 °F - 60.8 °F 64% 30.02 in 10.0 mi ESE 4.6 mph - N/A   Clear
8:35 AM 76.3 °F - 61.0 °F 59% 30.02 in 10.0 mi ESE 4.6 mph - N/A   Clear
8:55 AM 77.7 °F - 61.2 °F 57% 30.02 in 10.0 mi SSE 3.5 mph - N/A   Clear
9:15 AM 79.0 °F - 61.2 °F 54% 30.03 in 10.0 mi SSW 3.5 mph - N/A   Clear
9:35 AM 80.6 °F 81.5 °F 61.0 °F 51% 30.03 in 10.0 mi SW 3.5 mph - N/A   Clear
9:55 AM 80.6 °F 81.6 °F 61.3 °F 52% 30.03 in 10.0 mi Calm Calm - N/A   Clear
10:15 AM 82.4 °F 83.4 °F 62.4 °F 51% 30.03 in 10.0 mi SSW 3.5 mph - N/A   Clear
10:35 AM 83.5 °F 84.1 °F 61.9 °F 48% 30.03 in 10.0 mi Calm Calm - N/A   Clear
10:55 AM 86.0 °F 86.3 °F 61.9 °F 44% 30.03 in 10.0 mi SW 4.6 mph - N/A   Clear
11:15 AM 87.8 °F 87.9 °F 61.5 °F 41% 30.03 in 10.0 mi WSW 4.6 mph - N/A   Clear
11:35 AM 89.6 °F 89.8 °F 61.7 °F 39% 30.02 in 10.0 mi SW 4.6 mph - N/A   Clear
11:55 AM 90.9 °F 90.6 °F 60.6 °F 36% 30.02 in 10.0 mi WSW 3.5 mph - N/A   Clear
12:15 PM 92.3 °F 92.0 °F 59.9 °F 34% 30.01 in 10.0 mi NW 6.9 mph - N/A   Clear
12:35 PM 92.8 °F 92.4 °F 59.7 °F 33% 30.00 in 10.0 mi ENE 3.5 mph - N/A   Clear
12:55 PM 94.6 °F 94.3 °F 59.9 °F 31% 30.00 in 10.0 mi SSW 5.8 mph - N/A   Clear
1:15 PM 95.2 °F 94.7 °F 59.2 °F 30% 29.99 in 10.0 mi West 3.5 mph - N/A   Clear
1:35 PM 95.9 °F 95.7 °F 59.5 °F 30% 29.98 in 10.0 mi Calm Calm - N/A   Clear
1:55 PM 97.2 °F 96.8 °F 59.2 °F 28% 29.98 in 10.0 mi SSW 6.9 mph - N/A   Clear
2:15 PM 98.2 °F 97.5 °F 58.1 °F 26% 29.97 in 10.0 mi SE 5.8 mph - N/A   Clear
2:35 PM 99.5 °F 98.9 °F 58.3 °F 25% 29.96 in 10.0 mi Calm Calm - N/A   Clear
2:55 PM 98.8 °F 97.8 °F 57.4 °F 25% 29.95 in 10.0 mi SW 3.5 mph - N/A   Clear
3:15 PM 99.0 °F 97.7 °F 56.7 °F 24% 29.95 in 10.0 mi Calm Calm - N/A   Clear
3:35 PM 99.1 °F 97.9 °F 56.1 °F 24% 29.93 in 10.0 mi Calm Calm - N/A   Clear
3:55 PM 100.9 °F 99.6 °F 56.1 °F 22% 29.93 in 10.0 mi SW 6.9 mph - N/A   Clear
4:15 PM 101.3 °F 99.6 °F 55.0 °F 21% 29.91 in 10.0 mi SW 5.8 mph - N/A   Clear
4:35 PM 101.7 °F 99.7 °F 53.8 °F 20% 29.90 in 10.0 mi SSW 5.8 mph - N/A   Clear
4:55 PM 101.1 °F 99.4 °F 53.8 °F 21% 29.90 in 10.0 mi Calm Calm - N/A   Clear
5:15 PM 101.7 °F 100.1 °F 54.9 °F 21% 29.90 in 10.0 mi WSW 3.5 mph - N/A   Clear
5:35 PM 101.8 °F 100.4 °F 55.4 °F 21% 29.89 in 10.0 mi SW 4.6 mph - N/A   Clear
5:55 PM 101.1 °F 99.4 °F 55.0 °F 21% 29.89 in 10.0 mi SSE 4.6 mph - N/A   Clear
6:15 PM 101.1 °F 99.8 °F 55.4 °F 22% 29.88 in 10.0 mi SSW 4.6 mph - N/A   Clear
6:35 PM 101.1 °F 99.8 °F 55.4 °F 22% 29.88 in 10.0 mi WSW 4.6 mph - N/A   Clear
6:55 PM 100.0 °F 98.3 °F 54.9 °F 22% 29.87 in 10.0 mi Calm Calm - N/A   Clear
7:15 PM 99.9 °F 98.5 °F 55.4 °F 23% 29.86 in 10.0 mi WSW 3.5 mph - N/A   Clear
7:35 PM 99.0 °F 96.9 °F 53.6 °F 22% 29.86 in 10.0 mi SW 4.6 mph - N/A   Clear
7:55 PM 97.7 °F 95.6 °F 53.6 °F 23% 29.86 in 10.0 mi ESE 4.6 mph - N/A   Clear
8:15 PM 96.8 °F 94.7 °F 54.3 °F 24% 29.87 in 7.0 mi East 10.4 mph - N/A   Clear
8:35 PM 95.0 °F 93.4 °F 56.5 °F 27% 29.88 in 10.0 mi SE 16.1 mph - N/A   Clear
8:55 PM 93.4 °F 91.5 °F 55.9 °F 28% 29.88 in 10.0 mi SE 12.7 mph 18.4 mph N/A   Clear
9:15 PM 92.7 °F 90.9 °F 55.6 °F 29% 29.88 in 10.0 mi ESE 13.8 mph - N/A   Clear
9:35 PM 91.9 °F 90.0 °F 55.4 °F 29% 29.88 in 10.0 mi ESE 12.7 mph 18.4 mph N/A   Clear
9:55 PM 90.5 °F 88.5 °F 55.4 °F 30% 29.88 in 10.0 mi ESE 10.4 mph - N/A   Clear
10:15 PM 90.0 °F 88.1 °F 55.2 °F 31% 29.89 in 10.0 mi SE 10.4 mph - N/A   Clear
10:35 PM 90.0 °F 88.1 °F 55.6 °F 31% 29.89 in 10.0 mi ESE 13.8 mph - N/A   Clear
10:55 PM 89.2 °F 87.5 °F 55.9 °F 32% 29.90 in 10.0 mi ESE 16.1 mph 19.6 mph N/A   Clear
11:15 PM 88.5 °F 86.9 °F 55.9 °F 33% 29.90 in 10.0 mi SE 12.7 mph 20.7 mph N/A   Clear
11:35 PM 87.8 °F 86.3 °F 55.9 °F 34% 29.91 in 10.0 mi SE 11.5 mph - N/A   Clear
11:55 PM 87.1 °F 85.5 °F 55.8 °F 34% 29.92 in 10.0 mi SSE 10.4 mph - N/A   Clear